STARLINK-34307

Last updated on Thu Jul 03 2025 00:02:07 GMT+0000 (Coordinated Universal Time)

1 64489U 25133T 25183.58335648 -.01225404 00000+0 -60187-2 0 9999 2 64489 53.1551 210.7726 0000788 64.9321 310.6315 15.84062959 2703
UTC large
Height (km)
Speed (km/s)
/
Latitude / Longitude
Inclination (degrees)
Orbital Period (minutes)
Azimuth
Elevation
Range (km)
Doppler Factor

Next 0 passes for location: London (51.5072 / 0.1276)

Sorry there are no passes over London.